Content
SEND FEEDBACK

Daily
Averages
Monthly
Summary
United States of America

PYGA BEACH, GUAM


Home > North America > United States > Guam
Elevation: 20 feet     Latitude: 13 17N     Longitude: 144 39E

WEATHER
 
SELECT A DAY
Number of Records: 342,166;   Date Range: 1/1/95 - 8/12/14
 
SHARE

PRINT THIS DATA

[ ← Previous Day ]
WEATHER ALMANAC - JUNE 9, 2014
[ Next Day → ]
[ °C ]   °F
Weather ElementAverageHighLow
Temperature83.2 °F86.7 °F (1:58 pm)80.1 °F (2:58 am)
Dewpoint76.8 °F78.8 °F (3:03 pm)75.2 °F (5:23 am)
Humidity81.2 %89 % (5:13 am)73 % (1:58 pm)
Barometer29.79 in29.85 in (9:43 pm)29.73 in (3:58 pm)
Wind Speed11.8 mph18.4 mph (10:58 am)
Wind Gust23 mph (10:48 am)
Weather ElementAverage
Visibility9.7 mi
Wind DirectionESE (99.9 °)

Weather ElementTotal
Precipitation---
Cooling Degree Days18.4 (Base 65)
Growing Degree Days33.4 (Base 50)
Averaged from 76 records on June 9, 2014
WEATHER CONDITIONS BREAKOUT
WIND DIRECTION BREAKOUT
WEATHER BY HOUR - JUNE 9, 2014
[ °C ]   °F
Local TimeTemperatureDewpointHumidityBarometerVisibilityWind DirectionWind SpeedGust SpeedPrecipitationEventsConditions
1:58 AM80.8 °F76.3 °F86 %29.77 in10.0 miENE (60°)8.1 mphPartly Cloudy
2:58 AM80.1 °F76.3 °F88 %29.75 in10.0 miENE (60°)9.2 mphPartly Cloudy
3:58 AM80.2 °F76.1 °F87 %29.75 in10.0 miENE (60°)8.1 mphPartly Cloudy
4:58 AM80.1 °F76.3 °F88 %29.75 in10.0 miENE (60°)11.5 mphScattered Clouds
5:13 AM80.6 °F77.0 °F89 %29.78 in10.0 miENE (60°)12.7 mphMostly Cloudy
5:23 AM80.6 °F75.2 °F84 %29.78 in10.0 miENE (70°)11.5 mphScattered Clouds
5:58 AM80.1 °F75.9 °F87 %29.76 in10.0 miEast (80°)11.5 mphPartly Cloudy
6:33 AM80.6 °F75.2 °F84 %29.80 in10.0 miEast (100°)11.5 mphMostly Cloudy
6:38 AM80.6 °F75.2 °F84 %29.80 in10.0 miEast (90°)10.4 mphMostly Cloudy
6:58 AM81.7 °F76.3 °F84 %29.78 in10.0 miEast (80°)13.8 mphMostly Cloudy
7:13 AM82.4 °F75.2 °F79 %29.81 in10.0 miEast (80°)12.7 mphScattered Clouds
7:33 AM82.4 °F77.0 °F84 %29.82 in10.0 miEast (100°)13.8 mphMostly Cloudy
7:53 AM84.2 °F77.0 °F79 %29.82 in10.0 miEast (100°)11.5 mphMostly Cloudy
7:58 AM83.5 °F76.5 °F79 %29.78 in10.0 miEast (100°)12.7 mphScattered Clouds
8:58 AM84.6 °F77.4 °F79 %29.79 in10.0 miEast (100°)13.8 mphScattered Clouds
9:18 AM84.2 °F77.0 °F79 %29.82 in10.0 miESE (110°)12.7 mphMostly Cloudy
9:23 AM84.2 °F77.0 °F79 %29.83 in10.0 miESE (110°)15.0 mph20.7 mphMostly Cloudy
9:33 AM86.0 °F77.0 °F74 %29.82 in10.0 miEast (100°)15.0 mphScattered Clouds
9:38 AM84.2 °F77.0 °F79 %29.82 in10.0 miEast (100°)15.0 mphMostly Cloudy
9:43 AM84.2 °F77.0 °F79 %29.82 in10.0 miEast (100°)15.0 mphScattered Clouds
9:58 AM85.8 °F77.9 °F77 %29.79 in10.0 miEast (100°)13.8 mphScattered Clouds
10:03 AM86.0 °F77.0 °F74 %29.82 in10.0 miEast (100°)16.1 mph21.9 mphMostly Cloudy
10:43 AM86.0 °F77.0 °F74 %29.81 in10.0 miEast (100°)15.0 mphMostly Cloudy
10:48 AM86.0 °F77.0 °F74 %29.81 in10.0 miEast (90°)16.1 mph23.0 mphMostly Cloudy
10:58 AM85.6 °F77.7 °F77 %29.78 in10.0 miEast (90°)18.4 mph23.0 mphScattered Clouds
11:43 AM86.0 °F77.0 °F74 %29.80 in10.0 miESE (110°)16.1 mphMostly Cloudy
11:58 AM85.1 °F77.5 °F78 %29.76 in10.0 miEast (100°)12.7 mphMostly Cloudy
12:23 PM84.2 °F77.0 °F79 %29.79 in10.0 miESE (110°)12.7 mphScattered Clouds
12:28 PM84.2 °F77.0 °F79 %29.79 in10.0 miESE (110°)12.7 mphMostly Cloudy
12:33 PM84.2 °F77.0 °F79 %29.79 in10.0 miEast (100°)13.8 mphMostly Cloudy
12:43 PM86.0 °F77.0 °F74 %29.79 in10.0 miESE (110°)13.8 mphMostly Cloudy
12:48 PM86.0 °F77.0 °F74 %29.79 in10.0 miEast (100°)15.0 mphMostly Cloudy
12:58 PM86.2 °F77.0 °F74 %29.76 in10.0 miEast (100°)13.8 mphMostly Cloudy
1:58 PM86.7 °F77.0 °F73 %29.75 in10.0 miESE (110°)11.5 mphPartly Cloudy
2:28 PM86.0 °F77.0 °F74 %29.78 in10.0 miEast (90°)13.8 mphMostly Cloudy
2:33 PM86.0 °F77.0 °F74 %29.78 in10.0 miESE (110°)12.7 mphScattered Clouds
2:54 PM86.0 °F77.0 °F74 %29.77 in7.0 miENE (70°)16.1 mph23.0 mphMostly Cloudy
2:55 PM84.2 °F77.0 °F79 %29.77 in6.0 miENE (70°)15.0 mph23.0 mphRainLight Rain
2:58 PM84.9 °F77.7 °F79 %29.74 in5.0 miEast (90°)11.5 mph23.0 mph0.00 inRainLight Rain
3:03 PM82.4 °F78.8 °F89 %29.77 in5.0 miEast (100°)12.7 mph20.7 mphRainLight Rain
3:07 PM82.4 °F77.0 °F84 %29.77 in10.0 miEast (90°)11.5 mphScattered Clouds
3:58 PM85.5 °F77.5 °F77 %29.73 in10.0 miEast (100°)10.4 mph0.00 inScattered Clouds
4:03 PM84.2 °F77.0 °F79 %29.76 in10.0 miEast (100°)11.5 mphMostly Cloudy
4:17 PM82.4 °F77.0 °F84 %29.77 in5.0 miESE (120°)10.4 mph20.7 mphRainLight Rain
4:26 PM80.6 °F77.0 °F89 %29.77 in10.0 miESE (120°)10.4 mphMostly Cloudy
4:36 PM82.4 °F77.0 °F84 %29.77 in10.0 miESE (110°)9.2 mphMostly Cloudy
4:56 PM84.2 °F77.0 °F79 %29.77 in10.0 miESE (110°)10.4 mphMostly Cloudy
4:58 PM83.5 °F77.9 °F83 %29.74 in10.0 miESE (110°)9.2 mph0.00 inMostly Cloudy
5:03 PM82.4 °F77.0 °F84 %29.77 in10.0 miESE (110°)11.5 mphScattered Clouds
5:18 PM84.2 °F77.0 °F79 %29.77 in10.0 miESE (120°)13.8 mphMostly Cloudy
5:28 PM84.2 °F77.0 °F79 %29.77 in10.0 miESE (120°)11.5 mphScattered Clouds
5:33 PM84.2 °F77.0 °F79 %29.78 in10.0 miESE (120°)12.7 mphMostly Cloudy
5:38 PM84.2 °F77.0 °F79 %29.78 in10.0 miESE (120°)11.5 mphMostly Cloudy
5:43 PM82.4 °F77.0 °F84 %29.78 in10.0 miESE (110°)12.7 mphMostly Cloudy
5:53 PM82.4 °F75.2 °F79 %29.78 in10.0 miESE (120°)11.5 mphScattered Clouds
5:58 PM82.6 °F76.1 °F81 %29.76 in10.0 miESE (110°)9.2 mphScattered Clouds
6:03 PM82.4 °F77.0 °F84 %29.79 in10.0 miESE (120°)11.5 mphMostly Cloudy
6:13 PM82.4 °F77.0 °F84 %29.79 in10.0 miESE (110°)9.2 mphScattered Clouds
6:38 PM82.4 °F75.2 °F79 %29.80 in10.0 miEast (100°)11.5 mphMostly Cloudy
6:43 PM82.4 °F75.2 °F79 %29.80 in10.0 miEast (100°)10.4 mphMostly Cloudy
6:58 PM81.9 °F75.7 °F82 %29.77 in10.0 miESE (110°)8.1 mphMostly Cloudy
7:13 PM82.4 °F75.2 °F79 %29.80 in10.0 miESE (110°)9.2 mphScattered Clouds
7:48 PM82.4 °F75.2 °F79 %29.82 in10.0 miEast (100°)10.4 mphMostly Cloudy
7:58 PM81.5 °F76.3 °F84 %29.79 in10.0 miEast (100°)9.2 mphMostly Cloudy
8:08 PM82.4 °F77.0 °F84 %29.83 in10.0 miEast (100°)10.4 mphMostly Cloudy
8:58 PM81.7 °F77.0 °F86 %29.81 in10.0 miESE (110°)10.4 mphMostly Cloudy
9:03 PM82.4 °F77.0 °F84 %29.84 in10.0 miESE (110°)10.4 mphMostly Cloudy
9:08 PM82.4 °F77.0 °F84 %29.84 in10.0 miESE (110°)10.4 mphMostly Cloudy
9:13 PM82.4 °F77.0 °F84 %29.84 in10.0 miEast (100°)10.4 mphScattered Clouds
9:43 PM80.6 °F77.0 °F89 %29.85 in10.0 miESE (110°)8.1 mphMostly Cloudy
9:53 PM82.4 °F77.0 °F84 %29.85 in10.0 miESE (110°)8.1 mphMostly Cloudy
9:58 PM81.5 °F76.6 °F85 %29.82 in10.0 miEast (100°)10.4 mphMostly Cloudy
10:08 PM80.6 °F77.0 °F89 %29.85 in10.0 miESE (110°)10.4 mphMostly Cloudy
10:13 PM80.6 °F77.0 °F89 %29.85 in10.0 miESE (120°)9.2 mphMostly Cloudy
10:58 PM80.6 °F77.0 °F89 %29.82 in10.0 miESE (110°)8.1 mphScattered Clouds
11:58 PM80.8 °F77.2 °F89 %29.81 in10.0 miEast (80°)8.1 mphScattered Clouds
Hourly data recorded from PGUA, located miles away from Pyga Beach, Guam







STORIES FROM OUR PARTNERS